owner,sensor,date,latitude,longitude,vertical_datum,wind_speed,wind_to_direction,wind_speed_of_gust,qcFlag 
DISL,ioos:station:DISL:KATA:1,2013-07-01T00:00:00Z,30.2583,-88.2131,0.0,6.08,265.0,-9999.0,'1111122,1111122,1111122' 
DISL,ioos:station:DISL:KATA:1,2013-07-01T00:30:00Z,30.2583,-88.2131,0.0,6.18,260.8,-9999.0,'1111122,1111122,1111122' 
DISL,ioos:station:DISL:KATA:1,2013-07-01T01:00:00Z,30.2583,-88.2131,0.0,6.52,276.4,-9999.0,'1111122,1111122,1111122' 
DISL,ioos:station:DISL:KATA:1,2013-07-01T01:30:00Z,30.2583,-88.2131,0.0,6.27,281.1,-9999.0,'1111122,1111122,1111122' 
DISL,ioos:station:DISL:KATA:1,2013-07-01T02:00:00Z,30.2583,-88.2131,0.0,5.5,281.2,-9999.0,'1111122,1111122,1111122' 
DISL,ioos:station:DISL:KATA:1,2013-07-01T02:30:00Z,30.2583,-88.2131,0.0,4.23,280.2,-9999.0,'1111122,1111122,1111122' 
DISL,ioos:station:DISL:KATA:1,2013-07-01T03:00:00Z,30.2583,-88.2131,0.0,6.1,322.5,-9999.0,'1111122,1111122,1111122' 
DISL,ioos:station:DISL:KATA:1,2013-07-01T03:30:00Z,30.2583,-88.2131,0.0,6.44,1.221,-9999.0,'1111122,1111122,1111122' 
DISL,ioos:station:DISL:KATA:1,2013-07-01T04:00:00Z,30.2583,-88.2131,0.0,6.02,6.27,-9999.0,'1111122,1111122,1111122' 
DISL,ioos:station:DISL:KATA:1,2013-07-01T04:30:00Z,30.2583,-88.2131,0.0,4.8,350.7,-9999.0,'1111122,1111122,1111122' 
DISL,ioos:station:DISL:KATA:1,2013-07-01T05:00:00Z,30.2583,-88.2131,0.0,5.5,6.929,-9999.0,'1111122,1111122,1111122' 
DISL,ioos:station:DISL:KATA:1,2013-07-01T05:30:00Z,30.2583,-88.2131,0.0,4.53,345.0,-9999.0,'1111122,1111122,1111122' 
DISL,ioos:station:DISL:KATA:1,2013-07-01T06:00:00Z,30.2583,-88.2131,0.0,5.51,326.3,-9999.0,'1111122,1111122,1111122' 
DISL,ioos:station:DISL:KATA:1,2013-07-01T06:30:00Z,30.2583,-88.2131,0.0,6.15,356.0,-9999.0,'1111122,1111122,1111122' 
DISL,ioos:station:DISL:KATA:1,2013-07-01T07:00:00Z,30.2583,-88.2131,0.0,6.76,347.2,-9999.0,'1111122,1111122,1111122' 
DISL,ioos:station:DISL:KATA:1,2013-07-01T07:30:00Z,30.2583,-88.2131,0.0,7.08,354.2,-9999.0,'1111122,1111122,1111122' 
DISL,ioos:station:DISL:KATA:1,2013-07-01T08:00:00Z,30.2583,-88.2131,0.0,7.03,345.1,-9999.0,'1111122,1111122,1111122' 
DISL,ioos:station:DISL:KATA:1,2013-07-01T08:30:00Z,30.2583,-88.2131,0.0,6.49,339.1,-9999.0,'1111122,1111122,1111122' 
DISL,ioos:station:DISL:KATA:1,2013-07-01T09:00:00Z,30.2583,-88.2131,0.0,6.07,343.3,-9999.0,'1111122,1111122,1111122' 
DISL,ioos:station:DISL:KATA:1,2013-07-01T09:30:00Z,30.2583,-88.2131,0.0,6.2,336.6,-9999.0,'1111122,1111122,1111122' 
DISL,ioos:station:DISL:KATA:1,2013-07-01T10:00:00Z,30.2583,-88.2131,0.0,6.35,337.6,-9999.0,'1111122,1111122,1111122' 
DISL,ioos:station:DISL:KATA:1,2013-07-01T10:30:00Z,30.2583,-88.2131,0.0,5.73,339.4,-9999.0,'1111122,1111122,1111122' 
DISL,ioos:station:DISL:KATA:1,2013-07-01T11:00:00Z,30.2583,-88.2131,0.0,5.07,343.5,-9999.0,'1111122,1111122,1111122' 
DISL,ioos:station:DISL:KATA:1,2013-07-01T11:30:00Z,30.2583,-88.2131,0.0,4.96,4.067,-9999.0,'1111122,1111122,1111122' 
DISL,ioos:station:DISL:KATA:1,2013-07-01T12:00:00Z,30.2583,-88.2131,0.0,5.99,354.4,-9999.0,'1111122,1111122,1111122' 
DISL,ioos:station:DISL:KATA:1,2013-07-01T12:30:00Z,30.2583,-88.2131,0.0,5.69,0.084,-9999.0,'1111122,1111122,1111122' 
DISL,ioos:station:DISL:KATA:1,2013-07-01T13:00:00Z,30.2583,-88.2131,0.0,5.04,4.445,-9999.0,'1111122,1111122,1111122' 
DISL,ioos:station:DISL:KATA:1,2013-07-01T13:30:00Z,30.2583,-88.2131,0.0,4.3,0.352,-9999.0,'1111122,1111122,1111122' 
DISL,ioos:station:DISL:KATA:1,2013-07-01T14:00:00Z,30.2583,-88.2131,0.0,4.47,2.456,-9999.0,'1111122,1111122,1111122' 
DISL,ioos:station:DISL:KATA:1,2013-07-01T14:30:00Z,30.2583,-88.2131,0.0,3.61,349.0,-9999.0,'1111122,1111122,1111122' 
DISL,ioos:station:DISL:KATA:1,2013-07-01T15:00:00Z,30.2583,-88.2131,0.0,2.6,345.3,-9999.0,'1111122,1111122,1111122' 
DISL,ioos:station:DISL:KATA:1,2013-07-01T15:30:00Z,30.2583,-88.2131,0.0,3.17,345.4,-9999.0,'1111122,1111122,1111122' 
DISL,ioos:station:DISL:KATA:1,2013-07-01T16:00:00Z,30.2583,-88.2131,0.0,2.38,340.5,-9999.0,'1111122,1111122,1111122' 
DISL,ioos:station:DISL:KATA:1,2013-07-01T16:30:00Z,30.2583,-88.2131,0.0,3.5,321.9,-9999.0,'1111122,1111122,1111122' 
DISL,ioos:station:DISL:KATA:1,2013-07-01T17:00:00Z,30.2583,-88.2131,0.0,2.84,313.1,-9999.0,'1111122,1111122,1111122' 
DISL,ioos:station:DISL:KATA:1,2013-07-01T17:30:00Z,30.2583,-88.2131,0.0,2.98,307.0,-9999.0,'1111122,1111122,1111122' 
DISL,ioos:station:DISL:KATA:1,2013-07-01T18:00:00Z,30.2583,-88.2131,0.0,3.43,282.4,-9999.0,'1111122,1111122,1111122' 
DISL,ioos:station:DISL:KATA:1,2013-07-01T18:30:00Z,30.2583,-88.2131,0.0,3.47,250.2,-9999.0,'1111122,1111122,1111122' 
DISL,ioos:station:DISL:KATA:1,2013-07-01T19:00:00Z,30.2583,-88.2131,0.0,4.64,247.9,-9999.0,'1111122,1111122,1111122' 
DISL,ioos:station:DISL:KATA:1,2013-07-01T19:30:00Z,30.2583,-88.2131,0.0,5.64,240.0,-9999.0,'1111122,1111122,1111122' 
DISL,ioos:station:DISL:KATA:1,2013-07-01T20:00:00Z,30.2583,-88.2131,0.0,5.48,232.6,-9999.0,'1111122,1111122,1111122' 
DISL,ioos:station:DISL:KATA:1,2013-07-01T20:30:00Z,30.2583,-88.2131,0.0,5.26,231.1,-9999.0,'1111122,1111122,1111122' 
DISL,ioos:station:DISL:KATA:1,2013-07-01T21:00:00Z,30.2583,-88.2131,0.0,5.59,230.0,-9999.0,'1111122,1111122,1111122' 
DISL,ioos:station:DISL:KATA:1,2013-07-01T21:30:00Z,30.2583,-88.2131,0.0,5.85,235.3,-9999.0,'1111122,1111122,1111122' 
DISL,ioos:station:DISL:KATA:1,2013-07-01T22:00:00Z,30.2583,-88.2131,0.0,5.61,239.3,-9999.0,'1111122,1111122,1111122' 
DISL,ioos:station:DISL:KATA:1,2013-07-01T22:30:00Z,30.2583,-88.2131,0.0,5.32,240.7,-9999.0,'1111122,1111122,1111122' 
DISL,ioos:station:DISL:KATA:1,2013-07-01T23:00:00Z,30.2583,-88.2131,0.0,5.27,233.9,-9999.0,'1111122,1111122,1111122' 
DISL,ioos:station:DISL:KATA:1,2013-07-01T23:30:00Z,30.2583,-88.2131,0.0,5.69,233.2,-9999.0,'1111122,1111122,1111122' 
DISL,ioos:station:DISL:KATA:1,2013-07-02T00:00:00Z,30.2583,-88.2131,0.0,4.77,223.5,-9999.0,'1111122,1111122,1111122' 
DISL,ioos:station:DISL:KATA:1,2013-07-02T00:30:00Z,30.2583,-88.2131,0.0,4.51,229.5,-9999.0,'1111122,1111122,1111122' 
DISL,ioos:station:DISL:KATA:1,2013-07-02T01:00:00Z,30.2583,-88.2131,0.0,4.43,237.2,-9999.0,'1111122,1111122,1111122' 
DISL,ioos:station:DISL:KATA:1,2013-07-02T01:30:00Z,30.2583,-88.2131,0.0,4.11,240.0,-9999.0,'1111122,1111122,1111122' 
DISL,ioos:station:DISL:KATA:1,2013-07-02T02:00:00Z,30.2583,-88.2131,0.0,3.49,226.6,-9999.0,'1111122,1111122,1111122' 
DISL,ioos:station:DISL:KATA:1,2013-07-02T02:30:00Z,30.2583,-88.2131,0.0,3.78,337.2,-9999.0,'1111122,1111122,1111122' 
DISL,ioos:station:DISL:KATA:1,2013-07-02T03:00:00Z,30.2583,-88.2131,0.0,2.97,353.8,-9999.0,'1111122,1111122,1111122' 
DISL,ioos:station:DISL:KATA:1,2013-07-02T03:30:00Z,30.2583,-88.2131,0.0,4.22,351.7,-9999.0,'1111122,1111122,1111122' 
DISL,ioos:station:DISL:KATA:1,2013-07-02T04:00:00Z,30.2583,-88.2131,0.0,5.12,349.9,-9999.0,'1111122,1111122,1111122' 
DISL,ioos:station:DISL:KATA:1,2013-07-02T04:30:00Z,30.2583,-88.2131,0.0,6.48,346.1,-9999.0,'1111122,1111122,1111122' 
DISL,ioos:station:DISL:KATA:1,2013-07-02T05:00:00Z,30.2583,-88.2131,0.0,6.28,348.8,-9999.0,'1111122,1111122,1111122' 
DISL,ioos:station:DISL:KATA:1,2013-07-02T05:30:00Z,30.2583,-88.2131,0.0,5.38,0.059,-9999.0,'1111122,1111122,1111122' 
DISL,ioos:station:DISL:KATA:1,2013-07-02T06:00:00Z,30.2583,-88.2131,0.0,5.18,21.08,-9999.0,'1111122,1111122,1111122' 
DISL,ioos:station:DISL:KATA:1,2013-07-02T06:30:00Z,30.2583,-88.2131,0.0,4.8,13.84,-9999.0,'1111122,1111122,1111122' 
DISL,ioos:station:DISL:KATA:1,2013-07-02T07:00:00Z,30.2583,-88.2131,0.0,4.91,18.22,-9999.0,'1111122,1111122,1111122' 
DISL,ioos:station:DISL:KATA:1,2013-07-02T07:30:00Z,30.2583,-88.2131,0.0,4.75,19.44,-9999.0,'1111122,1111122,1111122' 
DISL,ioos:station:DISL:KATA:1,2013-07-02T08:00:00Z,30.2583,-88.2131,0.0,5.47,16.69,-9999.0,'1111122,1111122,1111122' 
DISL,ioos:station:DISL:KATA:1,2013-07-02T08:30:00Z,30.2583,-88.2131,0.0,5.28,21.89,-9999.0,'1111122,1111122,1111122' 
DISL,ioos:station:DISL:KATA:1,2013-07-02T09:00:00Z,30.2583,-88.2131,0.0,5.96,15.78,-9999.0,'1111122,1111122,1111122' 
DISL,ioos:station:DISL:KATA:1,2013-07-02T09:30:00Z,30.2583,-88.2131,0.0,5.64,15.67,-9999.0,'1111122,1111122,1111122' 
DISL,ioos:station:DISL:KATA:1,2013-07-02T10:00:00Z,30.2583,-88.2131,0.0,5.5,15.59,-9999.0,'1111122,1111122,1111122' 
DISL,ioos:station:DISL:KATA:1,2013-07-02T10:30:00Z,30.2583,-88.2131,0.0,5.72,13.01,-9999.0,'1111122,1111122,1111122' 
DISL,ioos:station:DISL:KATA:1,2013-07-02T11:00:00Z,30.2583,-88.2131,0.0,5.25,34.55,-9999.0,'1111122,1111122,1111122' 
DISL,ioos:station:DISL:KATA:1,2013-07-02T11:30:00Z,30.2583,-88.2131,0.0,4.93,41.51,-9999.0,'1111122,1111122,1111122' 
DISL,ioos:station:DISL:KATA:1,2013-07-02T12:00:00Z,30.2583,-88.2131,0.0,4.51,40.86,-9999.0,'1111122,1111122,1111122' 
DISL,ioos:station:DISL:KATA:1,2013-07-02T12:30:00Z,30.2583,-88.2131,0.0,4.94,15.64,-9999.0,'1111122,1111122,1111122' 
DISL,ioos:station:DISL:KATA:1,2013-07-02T13:00:00Z,30.2583,-88.2131,0.0,5.33,23.14,-9999.0,'1111122,1111122,1111122' 
DISL,ioos:station:DISL:KATA:1,2013-07-02T13:30:00Z,30.2583,-88.2131,0.0,4.31,37.47,-9999.0,'1111122,1111122,1111122' 
DISL,ioos:station:DISL:KATA:1,2013-07-02T14:00:00Z,30.2583,-88.2131,0.0,4.65,41.85,-9999.0,'1111122,1111122,1111122' 
DISL,ioos:station:DISL:KATA:1,2013-07-02T14:30:00Z,30.2583,-88.2131,0.0,4.52,49.43,-9999.0,'1111122,1111122,1111122' 
DISL,ioos:station:DISL:KATA:1,2013-07-02T15:00:00Z,30.2583,-88.2131,0.0,4.36,53.86,-9999.0,'1111122,1111122,1111122' 
DISL,ioos:station:DISL:KATA:1,2013-07-02T15:30:00Z,30.2583,-88.2131,0.0,4.27,55.01,-9999.0,'1111122,1111122,1111122' 
DISL,ioos:station:DISL:KATA:1,2013-07-02T16:00:00Z,30.2583,-88.2131,0.0,4.45,60.38,-9999.0,'1111122,1111122,1111122' 
DISL,ioos:station:DISL:KATA:1,2013-07-02T16:30:00Z,30.2583,-88.2131,0.0,3.62,58.82,-9999.0,'1111122,1111122,1111122' 
DISL,ioos:station:DISL:KATA:1,2013-07-02T17:00:00Z,30.2583,-88.2131,0.0,2.98,79.69,-9999.0,'1111122,1111122,1111122' 
DISL,ioos:station:DISL:KATA:1,2013-07-02T17:30:00Z,30.2583,-88.2131,0.0,2.68,97.8,-9999.0,'1111122,1111122,1111122' 
DISL,ioos:station:DISL:KATA:1,2013-07-02T18:00:00Z,30.2583,-88.2131,0.0,2.21,131.9,-9999.0,'1111122,1111122,1111122' 
DISL,ioos:station:DISL:KATA:1,2013-07-02T18:30:00Z,30.2583,-88.2131,0.0,2.66,162.5,-9999.0,'1111122,1111122,1111122' 
DISL,ioos:station:DISL:KATA:1,2013-07-02T19:00:00Z,30.2583,-88.2131,0.0,2.29,175.5,-9999.0,'1111122,1111122,1111122' 
DISL,ioos:station:DISL:KATA:1,2013-07-02T19:30:00Z,30.2583,-88.2131,0.0,2.6,170.2,-9999.0,'1111122,1111122,1111122' 
DISL,ioos:station:DISL:KATA:1,2013-07-02T20:00:00Z,30.2583,-88.2131,0.0,3.07,183.7,-9999.0,'1111122,1111122,1111122' 
DISL,ioos:station:DISL:KATA:1,2013-07-02T20:30:00Z,30.2583,-88.2131,0.0,3.44,180.2,-9999.0,'1111122,1111122,1111122' 
DISL,ioos:station:DISL:KATA:1,2013-07-02T21:00:00Z,30.2583,-88.2131,0.0,4.0,180.7,-9999.0,'1111122,1111122,1111122' 
DISL,ioos:station:DISL:KATA:1,2013-07-02T21:30:00Z,30.2583,-88.2131,0.0,3.68,190.8,-9999.0,'1111122,1111122,1111122' 
DISL,ioos:station:DISL:KATA:1,2013-07-02T22:00:00Z,30.2583,-88.2131,0.0,3.7,190.1,-9999.0,'1111122,1111122,1111122' 
DISL,ioos:station:DISL:KATA:1,2013-07-02T22:30:00Z,30.2583,-88.2131,0.0,3.93,190.2,-9999.0,'1111122,1111122,1111122' 
DISL,ioos:station:DISL:KATA:1,2013-07-02T23:00:00Z,30.2583,-88.2131,0.0,3.97,180.9,-9999.0,'1111122,1111122,1111122' 
DISL,ioos:station:DISL:KATA:1,2013-07-02T23:30:00Z,30.2583,-88.2131,0.0,4.19,179.0,-9999.0,'1111122,1111122,1111122' 
DISL,ioos:station:DISL:KATA:1,2013-07-03T00:00:00Z,30.2583,-88.2131,0.0,3.73,197.9,-9999.0,'1111122,1111122,1111122' 
DISL,ioos:station:DISL:KATA:1,2013-07-03T00:30:00Z,30.2583,-88.2131,0.0,2.76,185.3,-9999.0,'1111122,1111122,1111122' 
DISL,ioos:station:DISL:KATA:1,2013-07-03T01:00:00Z,30.2583,-88.2131,0.0,2.44,189.4,-9999.0,'1111122,1111122,1111122' 
DISL,ioos:station:DISL:KATA:1,2013-07-03T01:30:00Z,30.2583,-88.2131,0.0,2.19,181.1,-9999.0,'1111122,1111122,1111122' 
DISL,ioos:station:DISL:KATA:1,2013-07-03T02:00:00Z,30.2583,-88.2131,0.0,2.48,169.1,-9999.0,'1111122,1111122,1111122' 
DISL,ioos:station:DISL:KATA:1,2013-07-03T02:30:00Z,30.2583,-88.2131,0.0,2.48,152.6,-9999.0,'1111122,1111122,1111122' 
DISL,ioos:station:DISL:KATA:1,2013-07-03T03:00:00Z,30.2583,-88.2131,0.0,1.82,150.1,-9999.0,'1111122,1111122,1111122' 
DISL,ioos:station:DISL:KATA:1,2013-07-03T03:30:00Z,30.2583,-88.2131,0.0,1.75,178.9,-9999.0,'1111122,1111122,1111122' 
DISL,ioos:station:DISL:KATA:1,2013-07-03T04:00:00Z,30.2583,-88.2131,0.0,1.81,165.8,-9999.0,'1111122,1111122,1111122' 
DISL,ioos:station:DISL:KATA:1,2013-07-03T04:30:00Z,30.2583,-88.2131,0.0,2.33,156.7,-9999.0,'1111122,1111122,1111122' 
DISL,ioos:station:DISL:KATA:1,2013-07-03T05:00:00Z,30.2583,-88.2131,0.0,1.99,154.0,-9999.0,'1111122,1111122,1111122' 
DISL,ioos:station:DISL:KATA:1,2013-07-03T05:30:00Z,30.2583,-88.2131,0.0,1.85,123.4,-9999.0,'1111122,1111122,1111122' 
DISL,ioos:station:DISL:KATA:1,2013-07-03T06:00:00Z,30.2583,-88.2131,0.0,1.72,124.0,-9999.0,'1111122,1111122,1111122' 
DISL,ioos:station:DISL:KATA:1,2013-07-03T06:30:00Z,30.2583,-88.2131,0.0,1.85,110.6,-9999.0,'1111122,1111122,1111122' 
DISL,ioos:station:DISL:KATA:1,2013-07-03T07:00:00Z,30.2583,-88.2131,0.0,1.61,94.4,-9999.0,'1111122,1111122,1111122' 
DISL,ioos:station:DISL:KATA:1,2013-07-03T07:30:00Z,30.2583,-88.2131,0.0,2.1,86.9,-9999.0,'1111122,1111122,1111122' 
DISL,ioos:station:DISL:KATA:1,2013-07-03T08:00:00Z,30.2583,-88.2131,0.0,4.82,106.7,-9999.0,'1111122,1111122,1111122' 
DISL,ioos:station:DISL:KATA:1,2013-07-03T08:30:00Z,30.2583,-88.2131,0.0,6.58,313.8,-9999.0,'1111122,1111122,1111122' 
DISL,ioos:station:DISL:KATA:1,2013-07-03T09:00:00Z,30.2583,-88.2131,0.0,3.66,9.63,-9999.0,'1111122,1111122,1111122' 
DISL,ioos:station:DISL:KATA:1,2013-07-03T09:30:00Z,30.2583,-88.2131,0.0,4.28,6.526,-9999.0,'1111122,1111122,1111122' 
DISL,ioos:station:DISL:KATA:1,2013-07-03T10:00:00Z,30.2583,-88.2131,0.0,5.56,14.74,-9999.0,'1111122,1111122,1111122' 
DISL,ioos:station:DISL:KATA:1,2013-07-03T10:30:00Z,30.2583,-88.2131,0.0,4.85,12.69,-9999.0,'1111122,1111122,1111122' 
DISL,ioos:station:DISL:KATA:1,2013-07-03T11:00:00Z,30.2583,-88.2131,0.0,3.96,14.72,-9999.0,'1111122,1111122,1111122' 
DISL,ioos:station:DISL:KATA:1,2013-07-03T11:30:00Z,30.2583,-88.2131,0.0,4.12,27.25,-9999.0,'1111122,1111122,1111122' 
DISL,ioos:station:DISL:KATA:1,2013-07-03T12:00:00Z,30.2583,-88.2131,0.0,5.62,34.14,-9999.0,'1111122,1111122,1111122' 
DISL,ioos:station:DISL:KATA:1,2013-07-03T12:30:00Z,30.2583,-88.2131,0.0,6.11,29.53,-9999.0,'1111122,1111122,1111122' 
DISL,ioos:station:DISL:KATA:1,2013-07-03T13:00:00Z,30.2583,-88.2131,0.0,6.34,42.88,-9999.0,'1111122,1111122,1111122' 
DISL,ioos:station:DISL:KATA:1,2013-07-03T13:30:00Z,30.2583,-88.2131,0.0,6.95,56.35,-9999.0,'1111122,1111122,1111122' 
DISL,ioos:station:DISL:KATA:1,2013-07-03T14:00:00Z,30.2583,-88.2131,0.0,7.37,65.25,-9999.0,'1111122,1111122,1111122' 
DISL,ioos:station:DISL:KATA:1,2013-07-03T14:30:00Z,30.2583,-88.2131,0.0,6.12,63.24,-9999.0,'1111122,1111122,1111122' 
DISL,ioos:station:DISL:KATA:1,2013-07-03T15:00:00Z,30.2583,-88.2131,0.0,4.93,52.81,-9999.0,'1111122,1111122,1111122' 
DISL,ioos:station:DISL:KATA:1,2013-07-03T15:30:00Z,30.2583,-88.2131,0.0,4.35,60.88,-9999.0,'1111122,1111122,1111122' 
DISL,ioos:station:DISL:KATA:1,2013-07-03T16:00:00Z,30.2583,-88.2131,0.0,5.98,65.42,-9999.0,'1111122,1111122,1111122' 
DISL,ioos:station:DISL:KATA:1,2013-07-03T16:30:00Z,30.2583,-88.2131,0.0,6.15,73.59,-9999.0,'1111122,1111122,1111122' 
DISL,ioos:station:DISL:KATA:1,2013-07-03T17:00:00Z,30.2583,-88.2131,0.0,5.63,65.54,-9999.0,'1111122,1111122,1111122' 
DISL,ioos:station:DISL:KATA:1,2013-07-03T17:30:00Z,30.2583,-88.2131,0.0,5.75,73.38,-9999.0,'1111122,1111122,1111122' 
DISL,ioos:station:DISL:KATA:1,2013-07-03T18:00:00Z,30.2583,-88.2131,0.0,5.72,68.16,-9999.0,'1111122,1111122,1111122' 
DISL,ioos:station:DISL:KATA:1,2013-07-03T18:30:00Z,30.2583,-88.2131,0.0,4.54,137.3,-9999.0,'1111122,1111122,1111122' 
DISL,ioos:station:DISL:KATA:1,2013-07-03T19:00:00Z,30.2583,-88.2131,0.0,8.82,119.6,-9999.0,'1111122,1111122,1111122' 
DISL,ioos:station:DISL:KATA:1,2013-07-03T19:30:00Z,30.2583,-88.2131,0.0,7.82,86.3,-9999.0,'1111122,1111122,1111122' 
DISL,ioos:station:DISL:KATA:1,2013-07-03T20:00:00Z,30.2583,-88.2131,0.0,10.43,118.2,-9999.0,'1111122,1111122,1111122' 
DISL,ioos:station:DISL:KATA:1,2013-07-03T20:30:00Z,30.2583,-88.2131,0.0,9.85,112.6,-9999.0,'1111122,1111122,1111122' 
DISL,ioos:station:DISL:KATA:1,2013-07-03T21:00:00Z,30.2583,-88.2131,0.0,9.73,114.2,-9999.0,'1111122,1111122,1111122' 
DISL,ioos:station:DISL:KATA:1,2013-07-03T21:30:00Z,30.2583,-88.2131,0.0,8.52,116.7,-9999.0,'1111122,1111122,1111122' 
DISL,ioos:station:DISL:KATA:1,2013-07-03T22:00:00Z,30.2583,-88.2131,0.0,8.91,121.9,-9999.0,'1111122,1111122,1111122' 
DISL,ioos:station:DISL:KATA:1,2013-07-03T22:30:00Z,30.2583,-88.2131,0.0,8.7,117.5,-9999.0,'1111122,1111122,1111122' 
DISL,ioos:station:DISL:KATA:1,2013-07-03T23:00:00Z,30.2583,-88.2131,0.0,8.17,120.3,-9999.0,'1111122,1111122,1111122' 
DISL,ioos:station:DISL:KATA:1,2013-07-03T23:30:00Z,30.2583,-88.2131,0.0,8.01,107.4,-9999.0,'1111122,1111122,1111122' 
DISL,ioos:station:DISL:KATA:1,2013-07-04T00:00:00Z,30.2583,-88.2131,0.0,7.75,102.5,-9999.0,'1111122,1111122,1111122' 
DISL,ioos:station:DISL:KATA:1,2013-07-04T00:30:00Z,30.2583,-88.2131,0.0,7.14,93.7,-9999.0,'1111122,1111122,1111122' 
DISL,ioos:station:DISL:KATA:1,2013-07-04T01:00:00Z,30.2583,-88.2131,0.0,6.48,98.0,-9999.0,'1111122,1111122,1111122' 
DISL,ioos:station:DISL:KATA:1,2013-07-04T01:30:00Z,30.2583,-88.2131,0.0,6.03,95.7,-9999.0,'1111122,1111122,1111122' 
DISL,ioos:station:DISL:KATA:1,2013-07-04T02:00:00Z,30.2583,-88.2131,0.0,7.33,110.7,-9999.0,'1111122,1111122,1111122' 
DISL,ioos:station:DISL:KATA:1,2013-07-04T02:30:00Z,30.2583,-88.2131,0.0,7.41,98.7,-9999.0,'1111122,1111122,1111122' 
DISL,ioos:station:DISL:KATA:1,2013-07-04T03:00:00Z,30.2583,-88.2131,0.0,6.69,91.5,-9999.0,'1111122,1111122,1111122' 
DISL,ioos:station:DISL:KATA:1,2013-07-04T03:30:00Z,30.2583,-88.2131,0.0,6.8,86.6,-9999.0,'1111122,1111122,1111122' 
DISL,ioos:station:DISL:KATA:1,2013-07-04T04:00:00Z,30.2583,-88.2131,0.0,6.88,74.99,-9999.0,'1111122,1111122,1111122' 
DISL,ioos:station:DISL:KATA:1,2013-07-04T04:30:00Z,30.2583,-88.2131,0.0,9.03,76.34,-9999.0,'1111122,1111122,1111122' 
DISL,ioos:station:DISL:KATA:1,2013-07-04T05:00:00Z,30.2583,-88.2131,0.0,10.01,84.8,-9999.0,'1111122,1111122,1111122' 
DISL,ioos:station:DISL:KATA:1,2013-07-04T05:30:00Z,30.2583,-88.2131,0.0,10.24,73.04,-9999.0,'1111122,1111122,1111122' 
DISL,ioos:station:DISL:KATA:1,2013-07-04T06:00:00Z,30.2583,-88.2131,0.0,9.28,70.69,-9999.0,'1111122,1111122,1111122' 
DISL,ioos:station:DISL:KATA:1,2013-07-04T06:30:00Z,30.2583,-88.2131,0.0,6.53,73.14,-9999.0,'1111122,1111122,1111122' 
DISL,ioos:station:DISL:KATA:1,2013-07-04T07:00:00Z,30.2583,-88.2131,0.0,4.39,40.6,-9999.0,'1111122,1111122,1111122' 
DISL,ioos:station:DISL:KATA:1,2013-07-04T07:30:00Z,30.2583,-88.2131,0.0,5.65,72.05,-9999.0,'1111122,1111122,1111122' 
DISL,ioos:station:DISL:KATA:1,2013-07-04T08:00:00Z,30.2583,-88.2131,0.0,6.73,65.13,-9999.0,'1111122,1111122,1111122' 
DISL,ioos:station:DISL:KATA:1,2013-07-04T08:30:00Z,30.2583,-88.2131,0.0,5.23,72.68,-9999.0,'1111122,1111122,1111122' 
DISL,ioos:station:DISL:KATA:1,2013-07-04T09:00:00Z,30.2583,-88.2131,0.0,3.11,54.69,-9999.0,'1111122,1111122,1111122' 
DISL,ioos:station:DISL:KATA:1,2013-07-04T09:30:00Z,30.2583,-88.2131,0.0,1.42,79.07,-9999.0,'1111122,1111122,1111122' 
DISL,ioos:station:DISL:KATA:1,2013-07-04T10:00:00Z,30.2583,-88.2131,0.0,2.04,44.15,-9999.0,'1111122,1111122,1111122' 
DISL,ioos:station:DISL:KATA:1,2013-07-04T10:30:00Z,30.2583,-88.2131,0.0,2.07,39.93,-9999.0,'1111122,1111122,1111122' 
DISL,ioos:station:DISL:KATA:1,2013-07-04T11:00:00Z,30.2583,-88.2131,0.0,3.29,26.94,-9999.0,'1111122,1111122,1111122' 
DISL,ioos:station:DISL:KATA:1,2013-07-04T11:30:00Z,30.2583,-88.2131,0.0,5.19,24.02,-9999.0,'1111122,1111122,1111122' 
DISL,ioos:station:DISL:KATA:1,2013-07-04T12:00:00Z,30.2583,-88.2131,0.0,6.61,37.6,-9999.0,'1111122,1111122,1111122' 
DISL,ioos:station:DISL:KATA:1,2013-07-04T12:30:00Z,30.2583,-88.2131,0.0,6.05,25.77,-9999.0,'1111122,1111122,1111122' 
DISL,ioos:station:DISL:KATA:1,2013-07-04T13:00:00Z,30.2583,-88.2131,0.0,5.59,34.22,-9999.0,'1111122,1111122,1111122' 
DISL,ioos:station:DISL:KATA:1,2013-07-04T13:30:00Z,30.2583,-88.2131,0.0,5.2,32.66,-9999.0,'1111122,1111122,1111122' 
DISL,ioos:station:DISL:KATA:1,2013-07-04T14:00:00Z,30.2583,-88.2131,0.0,5.13,48.83,-9999.0,'1111122,1111122,1111122' 
DISL,ioos:station:DISL:KATA:1,2013-07-04T14:30:00Z,30.2583,-88.2131,0.0,4.05,50.06,-9999.0,'1111122,1111122,1111122' 
DISL,ioos:station:DISL:KATA:1,2013-07-04T15:00:00Z,30.2583,-88.2131,0.0,4.08,76.48,-9999.0,'1111122,1111122,1111122' 
DISL,ioos:station:DISL:KATA:1,2013-07-04T15:30:00Z,30.2583,-88.2131,0.0,3.93,94.6,-9999.0,'1111122,1111122,1111122' 
DISL,ioos:station:DISL:KATA:1,2013-07-04T16:00:00Z,30.2583,-88.2131,0.0,3.65,84.1,-9999.0,'1111122,1111122,1111122' 
DISL,ioos:station:DISL:KATA:1,2013-07-04T16:30:00Z,30.2583,-88.2131,0.0,0.77,113.7,-9999.0,'1111122,1111122,1111122' 
DISL,ioos:station:DISL:KATA:1,2013-07-04T17:00:00Z,30.2583,-88.2131,0.0,1.49,169.6,-9999.0,'1111122,1111122,1111122' 
DISL,ioos:station:DISL:KATA:1,2013-07-04T17:30:00Z,30.2583,-88.2131,0.0,2.27,171.7,-9999.0,'1111122,1111122,1111122' 
DISL,ioos:station:DISL:KATA:1,2013-07-04T18:00:00Z,30.2583,-88.2131,0.0,2.25,178.9,-9999.0,'1111122,1111122,1111122' 
DISL,ioos:station:DISL:KATA:1,2013-07-04T18:30:00Z,30.2583,-88.2131,0.0,3.09,152.2,-9999.0,'1111122,1111122,1111122' 
DISL,ioos:station:DISL:KATA:1,2013-07-04T19:00:00Z,30.2583,-88.2131,0.0,3.99,158.6,-9999.0,'1111122,1111122,1111122' 
DISL,ioos:station:DISL:KATA:1,2013-07-04T19:30:00Z,30.2583,-88.2131,0.0,4.64,148.7,-9999.0,'1111122,1111122,1111122' 
DISL,ioos:station:DISL:KATA:1,2013-07-04T20:00:00Z,30.2583,-88.2131,0.0,5.49,153.4,-9999.0,'1111122,1111122,1111122' 
DISL,ioos:station:DISL:KATA:1,2013-07-04T20:30:00Z,30.2583,-88.2131,0.0,7.03,161.1,-9999.0,'1111122,1111122,1111122' 
DISL,ioos:station:DISL:KATA:1,2013-07-04T21:00:00Z,30.2583,-88.2131,0.0,8.44,154.4,-9999.0,'1111122,1111122,1111122' 
DISL,ioos:station:DISL:KATA:1,2013-07-04T21:30:00Z,30.2583,-88.2131,0.0,10.6,152.3,-9999.0,'1111122,1111122,1111122' 
DISL,ioos:station:DISL:KATA:1,2013-07-04T22:00:00Z,30.2583,-88.2131,0.0,10.45,148.8,-9999.0,'1111122,1111122,1111122' 
DISL,ioos:station:DISL:KATA:1,2013-07-04T22:30:00Z,30.2583,-88.2131,0.0,10.38,149.9,-9999.0,'1111122,1111122,1111122' 
DISL,ioos:station:DISL:KATA:1,2013-07-04T23:00:00Z,30.2583,-88.2131,0.0,10.53,144.4,-9999.0,'1111122,1111122,1111122' 
DISL,ioos:station:DISL:KATA:1,2013-07-04T23:30:00Z,30.2583,-88.2131,0.0,9.86,144.7,-9999.0,'1111122,1111122,1111122' 
DISL,ioos:station:DISL:KATA:1,2013-07-05T00:00:00Z,30.2583,-88.2131,0.0,9.5,155.4,-9999.0,'1111122,1111122,1111122' 
DISL,ioos:station:DISL:KATA:1,2013-07-05T00:30:00Z,30.2583,-88.2131,0.0,10.22,159.1,-9999.0,'1111122,1111122,1111122' 
DISL,ioos:station:DISL:KATA:1,2013-07-05T01:00:00Z,30.2583,-88.2131,0.0,10.38,148.1,-9999.0,'1111122,1111122,1111122' 
DISL,ioos:station:DISL:KATA:1,2013-07-05T01:30:00Z,30.2583,-88.2131,0.0,11.06,157.4,-9999.0,'1111122,1111122,1111122' 
DISL,ioos:station:DISL:KATA:1,2013-07-05T02:00:00Z,30.2583,-88.2131,0.0,10.37,174.4,-9999.0,'1111122,1111122,1111122' 
DISL,ioos:station:DISL:KATA:1,2013-07-05T02:30:00Z,30.2583,-88.2131,0.0,10.28,172.8,-9999.0,'1111122,1111122,1111122' 
DISL,ioos:station:DISL:KATA:1,2013-07-05T03:00:00Z,30.2583,-88.2131,0.0,10.72,177.5,-9999.0,'1111122,1111122,1111122' 
DISL,ioos:station:DISL:KATA:1,2013-07-05T03:30:00Z,30.2583,-88.2131,0.0,9.79,181.9,-9999.0,'1111122,1111122,1111122' 
DISL,ioos:station:DISL:KATA:1,2013-07-05T04:00:00Z,30.2583,-88.2131,0.0,10.04,183.1,-9999.0,'1111122,1111122,1111122' 
DISL,ioos:station:DISL:KATA:1,2013-07-05T04:30:00Z,30.2583,-88.2131,0.0,10.56,187.5,-9999.0,'1111122,1111122,1111122' 